Regional Weather Roundup
Issued by NWS Upton, NY

Current Version | Previous Version | Text Only | Print | Product List | Glossary On
Versions: 1 2 3 4 5 6 7 8 9 10 11 12 13 14 15 16 17 18 19 20 21 22 23 24 25 26 27 28 29 30 31 32 33 34 35 36 37 38 39 40 41 42 43 44 45 46 47 48 49 50
000
ASUS41 KOKX 041004
RWROKX

REGIONAL WEATHER ROUNDUP
NATIONAL WEATHER SERVICE NEW YORK NY
600 AM EDT FRI SEP 04 2015

NOTE: "FAIR" INDICATES FEW OR NO CLOUDS BELOW 12,000 FEET WITH NO
SIGNIFICANT WEATHER AND/OR OBSTRUCTIONS TO VISIBILITY.

NYZ071-072-176-178-NJZ106-104-041100-
NEW YORK CITY METRO AREA


CITY           SKY/WX    TMP DP  RH WIND       PRES   REMARKS
CENTRAL PARK   CLEAR     77  66  68 VRB7      29.98R
LAGUARDIA APRT PTCLDY    76  66  71 NE9       29.95R
KENNEDY INTL   PTCLDY    76  67  73 NE8       29.95R
NEWARK/LIBERTY PTCLDY    76  67  73 N10       29.95R
BRNX BOT. GARD   N/A     73  64  73 CALM      29.98R
TETERBORO      CLEAR     75  66  73 N6        29.95R
$$

NYZ177-179-078>081-041100-
LONG ISLAND NEW YORK

CITY           SKY/WX    TMP DP  RH WIND       PRES   REMARKS
FARMINGDALE    CLEAR     73  68  84 NE8       29.96R
ISLIP          FOG       74  71  91 NE7       29.94R VSB 1
SHIRLEY        CLEAR     70  69  97 N3        29.96R FOG
WESTHAMPTON    CLEAR     74  71  91 NE6       29.97R FOG
MONTAUK POINT    N/A     71  70  96 NE7       29.98R
$$

NYZ052-065-067-041100-
HUDSON VALLEY

CITY           SKY/WX    TMP DP  RH WIND       PRES   REMARKS
WHITE PLAINS   CLEAR     72  66  81 N7        29.97R
NEWBURGH       PTCLDY    70  64  83 E14       30.01
MONTGOMERY     CLEAR     66  65  96 N3        30.00R
POUGHKEEPSIE   CLEAR     69  64  84 N3        29.99R
ALBANY         PTCLDY    66  54  65 N10       30.04R
$$

NJZ001-105-106-008-010-013-015-019>022-104-041100-
NEW JERSEY

CITY           SKY/WX    TMP DP  RH WIND       PRES   REMARKS
NEWARK/LIBERTY PTCLDY    76  67  73 N10       29.95R
TETERBORO      CLEAR     75  66  73 N6        29.95R
CALDWELL       CLEAR     72  66  81 NE5       29.97R
MORRISTOWN     FOG       63  59  88 CALM      29.96R VSB 1/4
SOMERVILLE     CLEAR     69  65  86 NW5       29.93R
SUSSEX         CLEAR     66  64  93 N3        30.00R
ANDOVER          N/A     68  67  96 VRB5      29.99R
TRENTON        CLEAR     73  66  78 N5        29.95R
MILLVILLE      CLEAR     70  68  93 CALM      29.93R FOG
ATLANTIC CITY  CLEAR     68  66  94 CALM      29.94R FOG
WRIGHTSTOWN    CLEAR     67  67  99 E1        29.92R
TOMS RIVER     CLEAR     64  61  88 CALM      29.94R
BELMAR         CLEAR     73  63  68 N3        29.94R
$$

PAZ047>061-062-071-041100-
EASTERN PENNSYLVANIA

CITY           SKY/WX    TMP DP  RH WIND       PRES   REMARKS
PHILADELPHIA   PTCLDY    77  68  73 E5        29.94R
ALLENTOWN      CLEAR     70  66  87 NE3       29.97R
SCRANTON       CLEAR     67  64  90 E5        30.01R FOG
$$

CTZ002-004>006-009-010-012-RIZ004-006-007-MAZ004-011-015-041100-
SOUTHERN NEW ENGLAND
 IN CT

CITY           SKY/WX    TMP DP  RH WIND       PRES   REMARKS
BRADLEY INTL   MOCLDY    70  64  81 N6        30.00R
HARTFORD       MOCLDY    73  67  81 N8        29.99R
DANBURY        MOCLDY    67  63  87 CALM      30.00R
WTRBRY/OXFORD  MOCLDY    70  61  73 NE10G16   30.01R
BRIDGEPORT     MOCLDY    75  68  78 NE8       29.96R
MERIDEN        CLOUDY    74  65  73 N7        29.98R
NEW HAVEN      PTCLDY    73  67  81 NE8       29.97R
CHESTER        NOT AVBL
GROTON         CLOUDY    72  69  90 N6        29.97R
WILLIMANTIC    MOCLDY    72  66  81 NE7       29.99R

 IN RI

CITY           SKY/WX    TMP DP  RH WIND       PRES   REMARKS
PROVIDENCE     PTCLDY    71  66  84 NE14      30.00R
BLOCK ISLAND   MOCLDY    70  68  94 NE6       29.98R
WESTERLY       MOCLDY    71  68  90 NE5       29.98R

 IN MA

CITY           SKY/WX    TMP DP  RH WIND       PRES   REMARKS
BOSTON         MOCLDY    66  57  72 NE14      30.06R
WORCESTER      CLOUDY    66  61  84 NE14G24   30.06R
WESTFIELD      CLOUDY    71  62  73 N10       30.02R
PROVINCETOWN     N/A     68  63  83 NE12      30.01R
NANTUCKET        N/A    N/A N/A N/A MISG        N/A
$$

ANZ330-335-338-340-345-350-353-355-041100-
COASTAL MARINE OBSERVATIONS


STATION/POSITION TIME  SKY/WX   TEMP    WIND        PRES    VSBY  WAVE
                                AIR SEA DIR/SP/G                  HT/PER
                 (UTC)          (F)     (DEG/KT/KT) (MB)    (MI)  (FT/S)
NY HARB ENTRANCE 0850            76 78  360/  4/  4 1012.9          1/12
4S FIRE IS       NOT AVBL
20S FIRE ISLAND  0850            76 76   50/  6/  6 1013.0          1/ 8
GREAT SOUTH BAY  0915            74 80   50/  8/ 10   N/A
23SW MTP         0950            72 73   60/ 10/ 14 1013.7          1/ 9
HUDSON CANYON    NOT AVBL
KINGS POINT      0900            75 75   20/  3/  6 1012.7
EXECUTION ROCKS  0900            75      10/  6/  8   N/A
CENTRAL LI SOUND NOT AVBL
EASTERN LI SOUND 0900            71 71   30/  4/  4   N/A
ROBBINS REEF     0900            77     360/  7/  8 1012.3
$$


>>>>>>>>>>>>>>>>>>>>>>>>>>>> KEY <<<<<<<<<<<<<<<<<<<<<<<<<<<
>                                                          <
>     SKY/WX - SKY CONDITION/PRESENT WEATHER               <
>     TMP    - TEMPERATURE IN FAHRENHEIT                   <
>     DP     - DEWPOINT IN FAHRENHEIT                      <
>     RH     - RELATIVE HUMIDITY IN PERCENT                <
>     WIND   - DIRECTION AND SPEED IN MPH                  <
>     PRES   - MEAN SEA LEVEL PRESSURE IN INCHES OF HG     <
>     WCI    - WIND CHILL INDEX                            <
>     VSB    - VISIBILITY IN MILES                         <
>     HX     - HEAT INDEX                                  <
>     TC     - TEMPERATURE IN CELSIUS                      <
>     VRB    - VARIABLE WIND DIRECTION                     <
>                                                          <
>>>>>>>>>>>>>>>>>>>>>>>>>>>> KEY <<<<<<<<<<<<<<<<<<<<<<<<<<<




USA.gov is the U.S. government's official web portal to all federal, state and local government web resources and services.